NOAA-15
1 25338U 98030A   06136.83899887  .00000009  00000-0  21986-4 0 05138
2 25338 098.5151 140.0802 0011653 104.3959 255.8515 14.24578187416250
RESURS
1 25394U 98043A   06136.80804980  .00000017  00000-0  25824-4 0  3683
2 25394 098.4931 200.7534 0000709 300.8461 059.2648 14.24100207407936
FENGYUN1
1 25730U 99025A   06136.58432987 -.00000115  00000-0 -39808-4 0 07320
2 25730 098.6241 130.3292 0013639 229.4461 130.5524 14.11810987361559
OKEAN-0
1 25860U 99039A   06137.65008081  .00000089  00000-0  20944-4 0  7499
2 25860 097.7338 153.4069 0000874 112.0423 248.0871 14.73362633367251
NOAA-16
1 26536U 00055A   06136.69097661 -.00000036  00000-0  54929-5 0 08827
2 26536 099.0646 102.9431 0009989 205.2122 154.8578 14.12338547291139
NOAA-17
1 27453U 02032A   06136.82840096 -.00000063  00000-0 -84425-5 0 09035
2 27453 098.6218 209.6480 0012248 162.3441 197.8186 14.23776395202319
NOAA-18
1 28654U 05018A   06136.79267280 -.00000091  00000-0 -26379-4 0 04837
2 28654 098.7874 080.7430 0013910 313.9601 046.0426 14.10957439050953
HUBBLE
1 20580U 90037B   06136.69174276  .00000377  00000-0  16499-4 0  6102
2 20580 028.4681 255.2014 0003961 209.9510 150.0777 15.00035601680361
UARS
1 21701U 91063B   06136.71186761  .00006566  00000-0  12488-3 0 07721
2 21701 056.9761 228.0928 0107994 146.6448 214.1454 15.43503230804448
PO-34
1 25520U 98064B   06137.81672279  .00000569  00000-0  18496-4 0  4672
2 25520 028.4604 234.3231 0005188 266.9292 093.0713 15.16708944417433
ISS
1 25544U 98067A   06137.93801944  .00012219  00000-0  82983-4 0  9545
2 25544 051.6373 343.2168 0009167 211.8478 288.4046 15.75385832428393
OO-38
1 26063U 00004C   06136.72483350  .00000076  00000-0  46452-4 0 06219
2 26063 100.1888 062.1027 0036932 195.3772 164.6292 14.35765309330166
NO-45
1 26932U 01043D   06136.88106144 -.00000035  00000-0  18814-4 0  3155
2 26932 067.0559 088.0132 0008822 267.5813 092.4313 14.29524525241491
UWE-1
1 28892U 05043C   06136.72577692  .00000286  00000-0  70119-4 0 04535
2 28892 098.1666 035.4469 0016342 270.4415 089.4915 14.59349939029381
CO-58
1 28895U 05043F   06136.71809708  .00000273  00000-0  67311-4 0 04360
2 28895 098.1696 035.5083 0016735 269.9300 089.9999 14.59404272029268
NCUBE2
1 28897U 05043H   06136.63015855  .00000248  00000-0  61834-4 0 00693
2 28897 098.1666 035.4115 0016349 274.0455 085.8874 14.59558441021527
